Yakima, WA
on Sunday, November 4, 2012

Sunday
Previous Day Next Day
Daily Summary
 ActualAverageRecord
Temperature
Mean Temperature °F / °C 42°F / 6°C  
Max Temperature 63°F / 17°C 54°F / 12°C 71°F / 21°C (2014)
Min Temperature 43°F / 6°C 29°F / -2°C 10°F / -12°C (2002)
Degree Days
Heating Degree Days 12 23  
Month to date heating degree days 58 91  
Since 1 July heating degree days 595 795  
Cooling Degree Days 0 0  
Month to date cooling degree days 0 0  
Year to date cooling degree days 667 472  
Growing Degree Days3 (Base °F / °C )  
Moisture
Dew Point 46°F / 8°C   
Average Humidity 77    
Maximum Humidity 93    
Minimum Humidity 60    
Precipitation
Precipitation 0.00 in / 0.00 cm 0.03 in / 0.76 cm 0.41 in / 1.04 cm (2008)
Month to date precipitation 0.06 0.11  
Year to date precipitation 6.59 5.78  
Snow
Snow 0.00 in / 0.00 cm 0.00 in / 0.00 cm 1.80 in / 4.57 cm (1973)
Month to date snowfall 0.0 0.0  
Year to date snowfall 21.5 8.7  
Since 1 July snowfall 0.0 0.1  
Snow Depth 0.00 in / 0.00 cm   
Wind
Wind Speed 2 mph / 3 km/h   
Max Wind Speed 8 mph / 13 km/h   
Max Gust Speed 14 mph / 23 km/h   
Visibility 8 miles / 13 kilometers   
Events     

Key: T is trace of precipitation, MM is missing value
Source: NWS Daily Summary
Time(PST)TemperatureDew PointHumidity Pressure Visibility Wind DirectionWind SpeedGust SpeedPrecipitationEvents Conditions
12:53 AM 48.9°F / 9.4°C 46.0°F / 7.8°C 90% 30.19 in / 1022.3 hPa 4.0 miles / 6.4 kilometers WNW 5.8 mph / 9.3 km/h - N/A   Mostly Cloudy
1:53 AM 46.0°F / 7.8°C 43.0°F / 6.1°C 89% 30.21 in / 1022.9 hPa 4.0 miles / 6.4 kilometers WNW 4.6 mph / 7.4 km/h - N/A   Partly Cloudy
1:53 AM 44.1°F / 6.7°C 41.0°F / 5.0°C 89% 30.21 in / 1023.0 hPa 3.0 miles / 4.8 kilometers WNW 4.6 mph / 7.4 km/h - N/A   Clear
2:53 AM 44.1°F / 6.7°C 42.1°F / 5.6°C 93% 30.23 in / 1023.7 hPa 6.0 miles / 9.7 kilometers Calm Calm - N/A   Mostly Cloudy
3:53 AM 43.0°F / 6.1°C 39.9°F / 4.4°C 89% 30.23 in / 1023.5 hPa 7.0 miles / 11.3 kilometers NW 3.5 mph / 5.6 km/h - N/A   Partly Cloudy
4:53 AM 46.0°F / 7.8°C 43.0°F / 6.1°C 89% 30.25 in / 1024.3 hPa 8.0 miles / 12.9 kilometers Calm Calm - N/A   Overcast
5:53 AM 45.0°F / 7.2°C 42.1°F / 5.6°C 90% 30.26 in / 1024.5 hPa 7.0 miles / 11.3 kilometers Calm Calm - N/A   Overcast
6:53 AM 45.0°F / 7.2°C 42.1°F / 5.6°C 90% 30.28 in / 1025.3 hPa 7.0 miles / 11.3 kilometers Calm Calm - N/A   Overcast
7:53 AM 46.0°F / 7.8°C 43.0°F / 6.1°C 89% 30.30 in / 1025.8 hPa 7.0 miles / 11.3 kilometers Calm Calm - N/A   Partly Cloudy
8:53 AM 51.1°F / 10.6°C 46.9°F / 8.3°C 86% 30.30 in / 1025.9 hPa 10.0 miles / 16.1 kilometers Calm Calm - N/A   Clear
9:53 AM 52.0°F / 11.1°C 46.9°F / 8.3°C 83% 30.30 in / 1025.8 hPa 5.0 miles / 8.0 kilometers East 3.5 mph / 5.6 km/h - N/A   Haze
10:53 AM 53.1°F / 11.7°C 46.9°F / 8.3°C 80% 30.29 in / 1025.6 hPa 9.0 miles / 14.5 kilometers Calm Calm - N/A   Clear
11:53 AM 55.0°F / 12.8°C 46.9°F / 8.3°C 74% 30.28 in / 1025.4 hPa 10.0 miles / 16.1 kilometers Calm Calm - N/A   Partly Cloudy
12:53 PM 60.1°F / 15.6°C 48.9°F / 9.4°C 67% 30.28 in / 1025.2 hPa 10.0 miles / 16.1 kilometers Calm Calm - N/A   Partly Cloudy
1:53 PM 62.1°F / 16.7°C 48.9°F / 9.4°C 62% 30.27 in / 1025.1 hPa 10.0 miles / 16.1 kilometers WNW 3.5 mph / 5.6 km/h - N/A   Partly Cloudy
2:53 PM 62.1°F / 16.7°C 50.0°F / 10.0°C 65% 30.28 in / 1025.3 hPa 10.0 miles / 16.1 kilometers Calm Calm - N/A   Partly Cloudy
3:53 PM 62.1°F / 16.7°C 50.0°F / 10.0°C 65% 30.27 in / 1025.0 hPa 10.0 miles / 16.1 kilometers Calm Calm - N/A   Partly Cloudy
4:53 PM 57.9°F / 14.4°C 50.0°F / 10.0°C 75% 30.27 in / 1025.0 hPa 10.0 miles / 16.1 kilometers Calm Calm - N/A   Partly Cloudy
5:53 PM 54.0°F / 12.2°C 48.0°F / 8.9°C 80% 30.28 in / 1025.3 hPa 10.0 miles / 16.1 kilometers Calm Calm - N/A   Clear
6:53 PM 53.1°F / 11.7°C 48.0°F / 8.9°C 83% 30.28 in / 1025.2 hPa 10.0 miles / 16.1 kilometers Calm Calm - N/A   Clear
7:53 PM 52.0°F / 11.1°C 48.0°F / 8.9°C 86% 30.27 in / 1024.9 hPa 10.0 miles / 16.1 kilometers Calm Calm - N/A   Clear
8:53 PM 51.1°F / 10.6°C 46.9°F / 8.3°C 86% 30.28 in / 1025.2 hPa 8.0 miles / 12.9 kilometers WSW 3.5 mph / 5.6 km/h - N/A   Clear
9:53 PM 48.9°F / 9.4°C 46.0°F / 7.8°C 90% 30.29 in / 1025.5 hPa 9.0 miles / 14.5 kilometers WNW 8.1 mph / 13.0 km/h - N/A   Clear
10:53 PM 50.0°F / 10.0°C 46.9°F / 8.3°C 89% 30.28 in / 1025.2 hPa 10.0 miles / 16.1 kilometers NW 5.8 mph / 9.3 km/h - N/A   Clear
Moon Phase
Nov. 04 Nov. 06 Nov. 13 Nov. 20 Nov. 28
Sunrise:06:49 AM (PST) Moon Rise:09:22 PM (PST)11/4
Sunset:04:41 PM (PST) Moon Set:11:39 AM (PST)11/4

Copyright © 2014 The Weather Underground, Inc.